This is the latest recevied weather packets stored in our database for station/object DL5TW-13. If no packets are shown the sender has not sent any weather packets the latest 10 day(s).
| Time | Temp. | Humidity | Pressure | Rain* | Wind** | Luminosity | Snow |
|---|---|---|---|---|---|---|---|
| 1777534968 | 12.22° C | 32% | 1026.3 hPa | 0 mm | - | - | - |
| 1777534668 | 12.22° C | 33% | 1026.3 hPa | 0 mm | - | - | - |
| 1777534368 | 12.22° C | 34% | 1026.3 hPa | 0 mm | - | - | - |
| 1777534067 | 11.67° C | 34% | 1026.2 hPa | 0 mm | - | - | - |
| 1777533767 | 11.11° C | 35% | 1026.2 hPa | 0 mm | - | - | - |
| 1777533467 | 11.11° C | 35% | 1026.4 hPa | 0 mm | - | - | - |
| 1777533167 | 11.67° C | 36% | 1026.3 hPa | 0 mm | - | - | - |
| 1777532866 | 11.67° C | 36% | 1026.3 hPa | 0 mm | - | - | - |
| 1777532566 | 11.67° C | 37% | 1026.3 hPa | 0 mm | - | - | - |
| 1777532266 | 11.11° C | 38% | 1026.1 hPa | 0 mm | - | - | - |
| 1777531966 | 10.56° C | 38% | 1026.3 hPa | 0 mm | - | - | - |
| 1777531665 | 11.11° C | 39% | 1026.3 hPa | 0 mm | - | - | - |
| 1777531365 | 10.56° C | 39% | 1026.3 hPa | 0 mm | - | - | - |
| 1777531065 | 10.56° C | 40% | 1026.4 hPa | 0 mm | - | - | - |
| 1777530764 | 10.56° C | 42% | 1026.4 hPa | 0 mm | - | - | - |
| 1777530464 | 10.56° C | 45% | 1026.2 hPa | 0 mm | - | - | - |
| 1777530164 | 10.56° C | 45% | 1026.3 hPa | 0 mm | - | - | - |
| 1777529863 | 10.56° C | 47% | 1026 hPa | 0 mm | - | - | - |
| 1777529563 | 10° C | 50% | 1025.9 hPa | 0 mm | - | - | - |
| 1777529263 | 9.44° C | 50% | 1026.1 hPa | 0 mm | - | - | - |
| 1777528963 | 9.44° C | 52% | 1026 hPa | 0 mm | - | - | - |
| 1777528662 | 7.78° C | 56% | 1026.1 hPa | 0 mm | - | - | - |
| 1777528362 | 7.78° C | 56% | 1026.1 hPa | 0 mm | - | - | - |
| 1777528062 | 6.67° C | 57% | 1026.1 hPa | 0 mm | - | - | - |
| 1777527761 | 5.56° C | 60% | 1026 hPa | 0 mm | - | - | - |
* Rain latest hour (hover to see other rain measurements)
** Current wind speed in m/s (hover to see current wind gust speed)